Regional Weather Roundup
Issued by NWS

Home | Current Version | Previous Version | Text Only | Print | Product List | Glossary On
Versions: 1 2 3 4 5 6 7 8 9 10 11 12 13 14 15 16 17 18 19 20 21 22 23 24 25 26 27 28 29 30 31 32 33 34 35 36 37 38 39 40 41 42 43 44 45 46 47 48 49 50
000
ASUS44 KMEG 230010
RWRTN
TENNESSEE HOURLY STATE WEATHER ROUNDUP
NATIONAL WEATHER SERVICE MEMPHIS TN
700 PM CDT WED OCT 22 2014

TNZ002-004-019-021-049-052-054-088>092-230100-
WEST TENNESSEE

CITY           SKY/WX    TMP DP  RH WIND       PRES   REMARKS
MEMPHIS INTL   CLEAR     61  42  49 NE6       30.17S
NWS MEMPHIS      N/A     56 N/A N/A MISG        N/A
JACKSON        CLEAR     54  42  64 CALM      30.19R
DYERSBURG      CLEAR     57  36  44 N3        30.21R
UNION CITY     CLEAR     54  43  66 CALM      30.20R
PARIS          CLEAR     48  41  76 NE3       30.21S
HUNTINGDON     CLEAR     52  41  66 CALM      30.20S
LEXINGTON      CLEAR     52  45  76 NE3       30.18S
SAVANNAH       CLEAR     52  46  82 CALM      30.18R
$$

TNZ008-025-027-028-033-062-065-066-230100-
NORTH MIDDLE TENNESSEE

CITY           SKY/WX    TMP DP  RH WIND       PRES   REMARKS
NASHVILLE      CLEAR     54  42  64 N8        30.20S
CLARKSVILLE    CLEAR     53  41  63 NE5       30.21S
SMYRNA         CLEAR     49  42  76 N5        30.21S
COOKEVILLE     CLEAR     45  41  87 NE3       30.19R
CROSSVILLE     CLEAR     50  39  66 NE9       30.20R
$$

TNZ061-075-076-078-094-096-097-230100-
SOUTH MIDDLE TENNESSEE

CITY           SKY/WX    TMP DP  RH WIND       PRES   REMARKS
FAYETTEVILLE   CLEAR     52  39  62 N5        30.17R
TULLAHOMA      CLEAR     50  41  71 N5        30.18F
WINCHESTER     CLEAR     52  43  71 NE5       30.17S
MCMINNVILLE    CLEAR     52  43  71 CALM      30.19R
COLUMBIA       CLEAR     52  45  76 CALM      30.18R
SHELBYVILLE    CLEAR     52  43  71 NE5       30.19S
$$

TNZ017-018-042-046-047-230100-
NORTHEAST TENNESSEE

CITY           SKY/WX    TMP DP  RH WIND       PRES   REMARKS
TRI CITIES     CLOUDY    48  41  76 N5        30.22R
ELIZABETHTON   CLOUDY    45  37  76 SW6       30.20S
$$

TNZ012-013-036-069-073-074-230100-
CENTRAL EAST TENNESSEE

CITY           SKY/WX    TMP DP  RH WIND       PRES   REMARKS
KNOXVILLE      PTCLDY    50  39  66 NE14      30.19R
OAK RIDGE      CLEAR     50  40  68 VRB3      30.23R
GATLINBURG     CLEAR     48  37  66 NE8       30.21R
MORRISTOWN     CLEAR     46  39  76 NE7       30.22S
$$

TNZ083-085-099-230100-
SOUTHEAST TENNESSEE

CITY           SKY/WX    TMP DP  RH WIND       PRES   REMARKS
CHATTANOOGA    CLEAR     57  43  59 NE6       30.16R
$$

SKY/WX REPORTED AS FAIR MEANS FEW OR NO CLOUDS BELOW
12 THOUSAND FEET.




USA.gov is the U.S. government's official web portal to all federal, state and local government web resources and services.